FENGYUN 1C DEB, 29959

Orbit data source: Space-Track

FENGYUN 1C DEB, 29959 is space debris in SSO originally from a launch on Mon, 10 May 1999 UTC launched from the Taiyaun Space Center, China (TSC). Fengyun 1C debris stems from the Chinese weather satellite Fengyun-1C, which was intentionally destroyed by a Chinese anti-satellite missile in 2007. This event dramatically increased the amount of space debris, with thousands of trackable fragments posing hazards to satellites and human spaceflight. The Fengyun 1C debris cloud has become a focal point in discussions about space sustainability and the need for international regulations to prevent the creation of new debris.

Loading next visibility...
Identifier
29959, 1999-025KH
Orbit
SSO
Country
Flag of CNCN / PRC
Related business
Manufacturer
Unknown
Mission
Spacecraft
Bus & Motor
Unknown
Mass
Unknown
Launch date (UTC)
1999-05-10 (27 years ago)
Launch vehicle
Unknown
Launch site
Taiyaun Space Center, China (TSC)
Object type
Payload
Rocket body
Debris
Shape & HBR
Unknown shape, 0.1 m
Radar Cross Section
Medium (>0.1 m² and <1 m²)

Expand to show TLE details & history
Last TLE update: 1 day ago

TLE from 1 day ago
0 FENGYUN 1C DEB
1 29959U 99025KH  26207.06916329  .00000164  00000-0  12471-3 0  9991
2 29959  98.7845 236.2690 0043132  55.4774 330.8279 14.06140321  1072
Epoch: 2026-07-26T01:39Z
TLE epoch observation values (Epoch: 2026-07-26T01:39:35.708Z)
Latitude
25.76807°
Longitude
-96.6576°
Altitude
848.435 km
Speed
7.445 km/s
True Right ascension
15h 28m 03s
True Declination
25° 38' 07"
Sunlit
Object was in daylight at epoch
Visualization orbit readout
Latitude
Unknown
Longitude
Unknown
Altitude
Unknown
Speed
Unknown
Apparent Right ascension
Unknown
Apparent Declination
Unknown
Sunlit
N/A
Visualization observer readout
Local Sidereal Time
22:01:09
Azimuth
Unknown
Elevation
Unknown
Doppler factor
Unknown
Orbital elements
Apogee altitude
901.052 km
Perigee altitude
838.529 km
Semi-major axis
7,247.927 km
Eccentricity
0.00431
Inclination
98.7845°
RAAN
236.269°
Arg. of periapsis
55.4774°
True anomaly
330.58584°
Mean anomaly
330.8279°
Eccentric anomaly
330.70699°
Mean motion
3.51741 °/min
Orbital period
102.35 mins
BSTAR
0.00012471
Loading maneuver chart data...
Computing Atmospheric mass density...

Documentation

Showing up to 5 results
|